Regional Weather Roundup
Issued by NWS

Home | Current Version | Previous Version | Graphics & Text | Print | Product List | Glossary On
Versions: 1 2 3 4 5 6 7 8 9 10 11 12 13 14 15 16 17 18 19 20 21 22 23 24 25 26 27 28 29 30 31 32 33 34 35 36 37 38 39 40 41 42 43 44 45 46 47 48 49 50
639
ASUS43 KTOP 030208
RWRKS

WEATHER ROUNDUP FOR KANSAS
NATIONAL WEATHER SERVICE GOODLAND KS
900 PM CDT MON MAY 02 2016

NOTE:  "FAIR" INDICATES FEW OR NO CLOUDS BELOW 12,000 FEET WITH NO
SIGNIFICANT WEATHER AND/OR OBSTRUCTIONS TO VISIBILITY.

KSZ001>006-013>018-027>032-041>047-030300-
NORTHWEST KANSAS

CITY           SKY/WX    TMP DP  RH WIND       PRES   REMARKS
GOODLAND       PTCLDY    52  34  50 N3        30.06S
HAYS           MOCLDY    55  37  50 E3        30.05S
HILL CITY      MOCLDY    56  40  55 E3        30.04F
RUSSELL        MOCLDY    54  44  69 E7        30.04S
$$

KSZ061>065-074>080-084>089-030300-
SOUTHWEST KANSAS

CITY           SKY/WX    TMP DP  RH WIND       PRES   REMARKS
DODGE CITY     CLEAR     53  34  48 W5        30.09R
ELKHART          N/A     54  31  41 N2          N/A
GARDEN CITY    CLEAR     52  32  46 S5        30.08S
GREAT BEND     CLEAR     55  39  54 CALM      30.06S
LIBERAL        CLEAR     55  34  44 CALM      30.11S
PRATT          CLEAR     54  39  58 CALM      30.09R
$$

KSZ066>073-081>083-090>101-030300-
SOUTHEAST KANSAS

CITY           SKY/WX    TMP DP  RH WIND       PRES   REMARKS
CHANUTE        MOCLDY    54  46  74 CALM      30.08S
COFFEYVILLE    CLEAR     51  46  83 CALM      30.08S
HUTCHINSON     CLEAR     48  41  76 E3        30.07S
MEDICINE LODGE   N/A     57  39  51 CALM      30.08R
NEWTON         CLEAR     54  36  50 CALM      30.10R
PARSONS        CLEAR     50  46  86 CALM      30.09S
WICHITA INTL   PTCLDY    56  38  50 CALM      30.08R
WICHITA JABRA  CLEAR     56  39  53 CALM      30.08R
WINFIELD       CLEAR     52  44  74 S3        30.26R
$$

KSZ007>012-019>026-033>040-048>060-102>105-030300-
NORTHEAST KANSAS

CITY           SKY/WX    TMP DP  RH WIND       PRES   REMARKS
CONCORDIA      MOCLDY    54  39  57 CALM      30.06S
EMPORIA        CLEAR     51  44  77 SE5       30.08R
LAWRENCE       CLEAR     48  46  93 CALM      30.07S
MANHATTAN      PTCLDY    51  44  77 CALM      30.06S
MARYSVILLE     PTCLDY    54  43  66 CALM      30.06S
OLATHE IND     CLEAR     50  45  83 W3        30.08S
OLATHE EXE     CLEAR     49  44  83 CALM      30.07S
SALINA         PTCLDY    55  40  56 CALM      30.07S
TOPEKA BILLARD CLEAR     52  45  77 CALM      30.07S
TOPEKA FORBES  CLEAR     50  45  83 CALM      30.07S
$$




USA.gov is the U.S. government's official web portal to all federal, state and local government web resources and services.